Location: Luxembourg
(49.6117°N, 6.1300°E)
Time: 16:45:50
(UTC+02:00)

N. Korean satellite - Pass Details

Date: 30 January 2019
Orbit: 457 x 508 km, 97.2° (Epoch: 17 April)

Event Time Altitude Azimuth Distance (km) Brightness Sun altitude
Rises 18:38:45 0° 194° (SSW) 2,598 10.7 -11.7°
Reaches altitude 10° 18:41:04 10° 207° (SSW) 1,723 9.9 -12.1°
Maximum altitude 18:44:14 26° 266° (W) 1,029 9.2 -12.6°
Drops below altitude 10° 18:47:26 10° 324° (NW) 1,740 9.7 -13.1°
Sets 18:49:48 0° 337° (NNW) 2,630 10.4 -13.5°
